Time,TemperatureF,DewpointF,PressureIn,WindDirection,WindDirectionDegrees,WindSpeedMPH,WindSpeedGustMPH,Humidity,HourlyPrecipIn,Conditions,Clouds,dailyrainin,SolarRadiationWatts/m^2,SoftwareType,DateUTC
2013-04-19 00:02:00,56.6,56.0,30.12,South,190,3.0,12.0,97,0.00,,,0.00,0,weatherlink.com 1.10,2013-04-19 04:02:00,
2013-04-19 00:17:00,56.7,56.0,30.11,SE,142,6.0,11.0,97,0.00,,,0.00,0,weatherlink.com 1.10,2013-04-19 04:17:00,
2013-04-19 00:32:00,56.6,56.0,30.11,SE,140,3.0,8.0,98,0.00,,,0.00,0,weatherlink.com 1.10,2013-04-19 04:32:00,
2013-04-19 00:47:00,56.2,55.0,30.10,South,173,5.0,10.0,97,0.00,,,0.00,0,weatherlink.com 1.10,2013-04-19 04:47:00,
2013-04-19 01:03:00,55.9,55.0,30.09,SSE,165,3.0,8.0,98,0.00,,,0.00,0,weatherlink.com 1.10,2013-04-19 05:03:00,
2013-04-19 01:18:00,55.5,55.0,30.09,SSW,198,0.0,9.0,98,0.00,,,0.00,0,weatherlink.com 1.10,2013-04-19 05:18:00,
2013-04-19 01:33:00,55.7,55.0,30.09,South,176,3.0,8.0,98,0.00,,,0.00,0,weatherlink.com 1.10,2013-04-19 05:33:00,
2013-04-19 01:48:00,56.2,56.0,30.08,SSE,163,2.0,8.0,98,0.00,,,0.00,0,weatherlink.com 1.10,2013-04-19 05:48:00,
2013-04-19 02:03:00,56.7,56.0,30.07,SSE,157,5.0,8.0,98,0.00,,,0.00,0,weatherlink.com 1.10,2013-04-19 06:03:00,
2013-04-19 02:18:00,57.7,57.0,30.06,SSW,207,4.0,14.0,98,0.00,,,0.00,0,weatherlink.com 1.10,2013-04-19 06:18:00,
2013-04-19 02:33:00,58.5,58.0,30.06,SSE,161,6.0,10.0,98,0.00,,,0.00,0,weatherlink.com 1.10,2013-04-19 06:33:00,
2013-04-19 02:47:00,59.0,59.0,30.05,WSW,237,5.0,10.0,98,0.00,,,0.00,0,weatherlink.com 1.10,2013-04-19 06:47:00,
2013-04-19 03:03:00,59.5,59.0,30.05,South,190,7.0,11.0,98,0.00,,,0.00,0,weatherlink.com 1.10,2013-04-19 07:03:00,
2013-04-19 03:18:00,59.7,59.0,30.04,SSW,205,2.0,11.0,98,0.00,,,0.00,0,weatherlink.com 1.10,2013-04-19 07:18:00,
2013-04-19 03:33:00,59.8,59.0,30.03,South,182,4.0,9.0,97,0.00,,,0.00,0,weatherlink.com 1.10,2013-04-19 07:33:00,
2013-04-19 03:48:00,59.7,59.0,30.03,SW,214,3.0,11.0,97,0.00,,,0.00,0,weatherlink.com 1.10,2013-04-19 07:48:00,
2013-04-19 04:03:00,59.6,59.0,30.02,SSW,202,7.0,11.0,97,0.00,,,0.00,0,weatherlink.com 1.10,2013-04-19 08:03:00,
2013-04-19 04:18:00,59.6,59.0,30.02,South,191,5.0,12.0,97,0.00,,,0.00,0,weatherlink.com 1.10,2013-04-19 08:18:00,
2013-04-19 04:33:00,59.5,59.0,30.02,SW,228,5.0,9.0,97,0.00,,,0.00,0,weatherlink.com 1.10,2013-04-19 08:33:00,
2013-04-19 04:48:00,59.3,59.0,30.02,SSW,207,2.0,9.0,97,0.00,,,0.00,0,weatherlink.com 1.10,2013-04-19 08:48:00,
2013-04-19 05:03:00,59.1,58.0,30.01,SW,216,1.0,9.0,96,0.00,,,0.00,0,weatherlink.com 1.10,2013-04-19 09:03:00,
2013-04-19 05:18:00,59.1,58.0,30.01,South,189,5.0,9.0,96,0.00,,,0.00,0,weatherlink.com 1.10,2013-04-19 09:18:00,
2013-04-19 05:33:00,58.9,58.0,30.01,SSW,213,3.0,11.0,96,0.00,,,0.00,0,weatherlink.com 1.10,2013-04-19 09:33:00,
2013-04-19 05:48:00,58.8,58.0,30.01,South,182,4.0,7.0,96,0.00,,,0.00,0,weatherlink.com 1.10,2013-04-19 09:48:00,
2013-04-19 06:03:00,58.6,58.0,30.01,South,171,6.0,9.0,96,0.00,,,0.00,0,weatherlink.com 1.10,2013-04-19 10:03:00,
2013-04-19 06:18:00,58.8,58.0,30.00,SSW,197,4.0,8.0,96,0.00,,,0.00,7,weatherlink.com 1.10,2013-04-19 10:18:00,
2013-04-19 06:33:00,59.0,58.0,30.00,South,188,6.0,10.0,96,0.00,,,0.00,19,weatherlink.com 1.10,2013-04-19 10:33:00,
2013-04-19 06:48:00,59.7,59.0,30.00,SW,220,4.0,11.0,96,0.00,,,0.00,25,weatherlink.com 1.10,2013-04-19 10:48:00,
2013-04-19 07:03:00,60.6,59.0,30.01,SSE,152,2.0,12.0,95,0.00,,,0.00,51,weatherlink.com 1.10,2013-04-19 11:03:00,
2013-04-19 07:18:00,61.4,60.0,30.01,SSW,193,9.0,12.0,94,0.00,,,0.00,77,weatherlink.com 1.10,2013-04-19 11:18:00,
2013-04-19 07:33:00,62.3,60.0,30.01,SSW,194,5.0,12.0,93,0.00,,,0.00,178,weatherlink.com 1.10,2013-04-19 11:33:00,
2013-04-19 07:48:00,62.7,60.0,30.00,SSW,200,7.0,18.0,92,0.00,,,0.00,84,weatherlink.com 1.10,2013-04-19 11:48:00,
2013-04-19 08:03:00,63.0,61.0,30.00,SSW,198,7.0,14.0,92,0.00,,,0.00,165,weatherlink.com 1.10,2013-04-19 12:03:00,
2013-04-19 08:18:00,63.4,61.0,29.99,SSW,207,7.0,13.0,91,0.00,,,0.00,401,weatherlink.com 1.10,2013-04-19 12:18:00,
2013-04-19 08:33:00,64.7,62.0,29.99,SW,219,11.0,14.0,90,0.00,,,0.00,353,weatherlink.com 1.10,2013-04-19 12:33:00,
2013-04-19 08:48:00,65.6,62.0,29.98,SSW,197,8.0,17.0,87,0.00,,,0.00,338,weatherlink.com 1.10,2013-04-19 12:48:00,
2013-04-19 09:03:00,67.7,63.0,29.98,South,172,7.0,25.0,84,0.00,,,0.00,592,weatherlink.com 1.10,2013-04-19 13:03:00,
2013-04-19 09:18:00,67.2,62.0,29.98,SW,217,7.0,17.0,83,0.00,,,0.00,404,weatherlink.com 1.10,2013-04-19 13:18:00,
2013-04-19 09:35:00,68.2,63.0,29.97,SSW,194,7.0,20.0,82,0.00,,,0.00,385,weatherlink.com 1.10,2013-04-19 13:35:00,
2013-04-19 09:49:00,69.0,62.0,29.97,WSW,244,13.0,19.0,79,0.00,,,0.00,230,weatherlink.com 1.10,2013-04-19 13:49:00,
2013-04-19 10:04:00,69.0,62.0,29.96,SW,221,10.0,19.0,79,0.00,,,0.00,353,weatherlink.com 1.10,2013-04-19 14:04:00,
2013-04-19 10:20:00,70.7,64.0,29.95,SW,221,7.0,17.0,78,0.00,,,0.00,329,weatherlink.com 1.10,2013-04-19 14:20:00,
2013-04-19 10:34:00,71.6,63.0,29.95,SW,221,18.0,19.0,75,0.00,,,0.00,805,weatherlink.com 1.10,2013-04-19 14:34:00,
2013-04-19 10:49:00,70.8,63.0,29.94,South,184,9.0,23.0,77,0.00,,,0.00,473,weatherlink.com 1.10,2013-04-19 14:49:00,
2013-04-19 11:04:00,71.8,64.0,29.93,SSW,202,14.0,23.0,76,0.00,,,0.00,591,weatherlink.com 1.10,2013-04-19 15:04:00,
2013-04-19 11:19:00,68.9,62.0,29.93,West,261,6.0,16.0,78,0.00,,,0.00,265,weatherlink.com 1.10,2013-04-19 15:19:00,
2013-04-19 11:34:00,68.5,62.0,29.92,SSE,167,3.0,15.0,79,0.00,,,0.00,366,weatherlink.com 1.10,2013-04-19 15:34:00,
2013-04-19 11:49:00,72.2,65.0,29.91,SW,219,8.0,18.0,78,0.00,,,0.00,431,weatherlink.com 1.10,2013-04-19 15:49:00,
2013-04-19 12:04:00,71.8,65.0,29.91,South,171,11.0,28.0,78,0.00,,,0.00,172,weatherlink.com 1.10,2013-04-19 16:04:00,
2013-04-19 12:19:00,69.7,64.0,29.91,South,186,27.0,29.0,82,0.00,,,0.00,141,weatherlink.com 1.10,2013-04-19 16:19:00,
2013-04-19 12:35:00,69.6,65.0,29.89,SE,134,12.0,22.0,85,0.00,,,0.00,353,weatherlink.com 1.10,2013-04-19 16:35:00,
2013-04-19 12:49:00,70.2,65.0,29.89,South,191,17.0,28.0,83,0.00,,,0.00,355,weatherlink.com 1.10,2013-04-19 16:49:00,
2013-04-19 13:04:00,71.5,65.0,29.87,SSW,202,9.0,21.0,80,0.00,,,0.00,376,weatherlink.com 1.10,2013-04-19 17:04:00,
2013-04-19 13:19:00,72.1,65.0,29.87,SSE,151,6.0,33.0,77,0.00,,,0.00,596,weatherlink.com 1.10,2013-04-19 17:19:00,
2013-04-19 13:35:00,73.6,65.0,29.86,SSW,205,8.0,22.0,74,0.00,,,0.00,870,weatherlink.com 1.10,2013-04-19 17:35:00,
2013-04-19 13:49:00,73.9,64.0,29.86,South,179,10.0,22.0,70,0.00,,,0.00,580,weatherlink.com 1.10,2013-04-19 17:49:00,
2013-04-19 14:04:00,74.3,64.0,29.85,SSE,163,5.0,22.0,70,0.00,,,0.00,745,weatherlink.com 1.10,2013-04-19 18:04:00,
2013-04-19 14:19:00,74.0,64.0,29.84,SSW,194,7.0,22.0,70,0.00,,,0.00,710,weatherlink.com 1.10,2013-04-19 18:19:00,
2013-04-19 14:35:00,74.3,64.0,29.83,SE,142,7.0,19.0,71,0.00,,,0.00,580,weatherlink.com 1.10,2013-04-19 18:35:00,
2013-04-19 14:50:00,72.4,64.0,29.82,SSE,161,8.0,18.0,75,0.00,,,0.00,949,weatherlink.com 1.10,2013-04-19 18:50:00,
2013-04-19 15:06:00,72.5,64.0,29.80,SSW,211,5.0,19.0,74,0.00,,,0.00,747,weatherlink.com 1.10,2013-04-19 19:06:00,
2013-04-19 15:20:00,72.7,65.0,29.80,South,175,2.0,13.0,76,0.00,,,0.00,824,weatherlink.com 1.10,2013-04-19 19:20:00,
2013-04-19 15:37:00,71.5,64.0,29.79,South,179,6.0,18.0,76,0.00,,,0.00,664,weatherlink.com 1.10,2013-04-19 19:37:00,
2013-04-19 15:50:00,72.2,64.0,29.79,WSW,243,15.0,18.0,75,0.00,,,0.00,487,weatherlink.com 1.10,2013-04-19 19:50:00,
2013-04-19 16:05:00,71.8,64.0,29.78,South,170,7.0,19.0,76,0.00,,,0.00,538,weatherlink.com 1.10,2013-04-19 20:05:00,
2013-04-19 16:20:00,72.7,64.0,29.77,SSE,156,4.0,19.0,73,0.00,,,0.00,438,weatherlink.com 1.10,2013-04-19 20:20:00,
2013-04-19 16:35:00,71.9,64.0,29.76,SSW,213,14.0,22.0,75,0.00,,,0.00,374,weatherlink.com 1.10,2013-04-19 20:35:00,
2013-04-19 16:50:00,71.8,64.0,29.75,SSE,166,7.0,18.0,77,0.00,,,0.00,199,weatherlink.com 1.10,2013-04-19 20:50:00,
2013-04-19 17:05:00,69.5,62.0,29.74,South,185,7.0,15.0,78,0.00,,,0.00,153,weatherlink.com 1.10,2013-04-19 21:05:00,
2013-04-19 17:20:00,68.5,63.0,29.74,South,184,12.0,21.0,82,0.00,,,0.00,121,weatherlink.com 1.10,2013-04-19 21:20:00,
2013-04-19 17:36:00,70.1,63.0,29.75,SSW,209,7.0,24.0,79,0.00,,,0.00,218,weatherlink.com 1.10,2013-04-19 21:36:00,
2013-04-19 17:51:00,69.9,64.0,29.75,SSW,196,14.0,27.0,80,0.00,,,0.00,113,weatherlink.com 1.10,2013-04-19 21:51:00,
2013-04-19 18:06:00,69.6,64.0,29.74,SSW,195,9.0,17.0,81,0.00,,,0.00,63,weatherlink.com 1.10,2013-04-19 22:06:00,
2013-04-19 18:21:00,68.7,64.0,29.74,SW,234,10.0,22.0,84,0.00,,,0.00,56,weatherlink.com 1.10,2013-04-19 22:21:00,
2013-04-19 18:35:00,68.2,64.0,29.74,SSW,202,17.0,22.0,86,0.00,,,0.00,37,weatherlink.com 1.10,2013-04-19 22:35:00,
2013-04-19 18:50:00,67.7,64.0,29.74,SSW,213,8.0,24.0,87,0.00,,,0.00,19,weatherlink.com 1.10,2013-04-19 22:50:00,
2013-04-19 19:06:00,67.0,63.0,29.73,SSW,198,10.0,19.0,88,0.00,,,0.00,21,weatherlink.com 1.10,2013-04-19 23:06:00,
2013-04-19 19:20:00,66.7,63.0,29.72,SSW,192,13.0,24.0,89,0.00,,,0.00,28,weatherlink.com 1.10,2013-04-19 23:20:00,
2013-04-19 19:35:00,66.5,63.0,29.72,SSW,198,9.0,22.0,89,0.00,,,0.00,0,weatherlink.com 1.10,2013-04-19 23:35:00,
2013-04-19 19:50:00,66.3,63.0,29.71,SSE,155,16.0,23.0,90,0.00,,,0.00,0,weatherlink.com 1.10,2013-04-19 23:50:00,
2013-04-19 20:05:00,66.3,63.0,29.71,South,182,11.0,26.0,90,0.00,,,0.00,0,weatherlink.com 1.10,2013-04-20 00:05:00,
2013-04-19 20:20:00,65.9,63.0,29.71,SW,218,8.0,30.0,90,0.00,,,0.00,0,weatherlink.com 1.10,2013-04-20 00:20:00,
2013-04-19 20:35:00,65.8,63.0,29.71,South,189,12.0,24.0,90,0.00,,,0.00,0,weatherlink.com 1.10,2013-04-20 00:35:00,
2013-04-19 20:50:00,65.9,63.0,29.72,SSW,203,7.0,18.0,90,0.00,,,0.00,0,weatherlink.com 1.10,2013-04-20 00:50:00,
2013-04-19 21:07:00,66.5,64.0,29.71,South,190,22.0,25.0,90,0.00,,,0.00,0,weatherlink.com 1.10,2013-04-20 01:07:00,
2013-04-19 21:22:00,66.8,64.0,29.70,SSW,202,6.0,31.0,90,0.00,,,0.00,0,weatherlink.com 1.10,2013-04-20 01:22:00,
2013-04-19 21:35:00,67.1,64.0,29.70,South,188,18.0,26.0,90,0.00,,,0.00,0,weatherlink.com 1.10,2013-04-20 01:35:00,
2013-04-19 21:51:00,67.7,64.0,29.72,SSW,198,9.0,35.0,89,0.00,,,0.00,0,weatherlink.com 1.10,2013-04-20 01:51:00,
2013-04-19 22:06:00,68.2,65.0,29.72,SW,226,15.0,25.0,89,0.00,,,0.00,0,weatherlink.com 1.10,2013-04-20 02:06:00,
2013-04-19 22:21:00,68.5,65.0,29.72,SW,233,17.0,21.0,87,0.00,,,0.00,0,weatherlink.com 1.10,2013-04-20 02:21:00,
2013-04-19 22:36:00,69.0,64.0,29.72,SW,228,7.0,22.0,84,0.00,,,0.00,0,weatherlink.com 1.10,2013-04-20 02:36:00,
2013-04-19 22:51:00,69.3,63.0,29.73,SW,233,13.0,22.0,81,0.00,,,0.00,0,weatherlink.com 1.10,2013-04-20 02:51:00,
2013-04-19 23:06:00,67.5,63.0,29.74,WSW,242,19.0,22.0,84,0.00,,,0.00,0,weatherlink.com 1.10,2013-04-20 03:06:00,
2013-04-19 23:22:00,65.9,63.0,29.72,SW,223,8.0,22.0,90,0.02,,,0.02,0,weatherlink.com 1.10,2013-04-20 03:22:00,
2013-04-19 23:35:00,65.4,63.0,29.72,SW,234,3.0,14.0,92,0.02,,,0.02,0,weatherlink.com 1.10,2013-04-20 03:35:00,
2013-04-19 23:51:00,65.3,63.0,29.72,SSW,213,7.0,16.0,93,0.02,,,0.02,0,weatherlink.com 1.10,2013-04-20 03:51:00,